Weather History for KMGW - December, 2002

Change the Weather History Date:

Tuesday, December 31, 2002

  Actual Average Record
Temperature  
Mean Temperature 54 °F 32 °F  
Max Temperature 61 °F 39 °F 71 °F (1972)
Min Temperature 48 °F 24 °F 3 °F (1983)
Degree Days  
Heating Degree Days 10 33  
Month to date heating degree days 937  
Since 1 July heating degree days 1984  
Cooling Degree Days 0 0  
Month to date cooling degree days 0  
Year to date cooling degree days 814  
Growing Degree Days 4 (Base 50)    
Moisture  
Dew Point 42 °F    
Average Humidity 66    
Maximum Humidity 100    
Minimum Humidity 38    
Precipitation  
Precipitation 0.02 in 0.08 in - ()
Month to date precipitation 2.91  
Year to date precipitation 41.83  
Sea Level Pressure  
Sea Level Pressure 29.98 in    
Wind  
Wind Speed 6 mph (SSW)    
Max Wind Speed 9 mph    
Max Gust Speed -    
Visibility 10 miles    
Events Rain    
T = Trace of Precipitation, MM = Missing Value Source: NWS Daily Summary

Daily Weather History Graph

Daily Weather History Graph

Search for Another Location

Airport or City:

Trip Planner

Search our weather history database for the weather conditions in past years. The results will help you decide how hot, cold, wet, or windy it might be!

Date:

Astronomy

Dec. 31, 2002 Rise Set
Actual Time 7:40 AM EST 5:05 PM EST
Civil Twilight 7:10 AM EST 5:35 PM EST
Nautical Twilight 6:36 AM EST 6:09 PM EST
Astronomical Twilight 6:03 AM EST 6:42 PM EST
Moon 5:23 AM EST (12/31) 3:05 PM EST (12/31)
Length of Visible Light 10h 25m
Length of Day
9h 24m
Waning Crescent, 6% of the Moon is Illuminated
Dec 31
Waning Crescent
Jan 2
New
Jan 10
First Quarter
Jan 18
Full
Jan 25
Last Quarter

Hourly Weather History & Observations

Time (EST) Temp. Dew Point Humidity Pressure Visibility Wind Dir Wind Speed Gust Speed Precip Events Conditions
12:53 AM 51.1 °F 39.9 °F 66% 30.01 in 10.0 mi SSW 5.8 mph - N/A   Overcast
1:53 AM 54.0 °F 34.0 °F 47% 30.00 in 10.0 mi SSW 6.9 mph - N/A   Overcast
2:53 AM 55.9 °F 32.0 °F 40% 30.01 in 10.0 mi SSW 6.9 mph - N/A   Overcast
3:53 AM 55.9 °F 30.9 °F 39% 30.01 in 10.0 mi SSW 6.9 mph - N/A   Overcast
4:16 AM 55.4 °F 30.2 °F 38% 30.01 in 10.0 mi SSW 6.9 mph - N/A   Overcast
4:53 AM 55.0 °F 32.0 °F 42% 30.00 in 10.0 mi SSW 5.8 mph - N/A   Overcast
5:53 AM 55.0 °F 32.0 °F 42% 30.00 in 10.0 mi SSW 4.6 mph - N/A   Overcast
7:53 AM 53.6 °F 32.0 °F 44% 30.03 in 10.0 mi SSW 3.5 mph - N/A   Overcast
8:52 AM 53.6 °F 33.8 °F 47% 30.02 in 10.0 mi South 6.9 mph - N/A   Overcast
10:53 AM 59.0 °F 37.0 °F 44% 29.99 in 10.0 mi South 8.1 mph - N/A   Mostly Cloudy
11:53 AM 60.1 °F 43.0 °F 53% 29.95 in 10.0 mi SW 9.2 mph - N/A   Overcast
12:53 PM 60.1 °F 44.1 °F 55% 29.93 in 10.0 mi SW 5.8 mph - N/A   Overcast
1:53 PM 59.0 °F 45.0 °F 60% 29.90 in 10.0 mi Variable 4.6 mph - N/A   Overcast
2:53 PM 60.1 °F 48.9 °F 67% 29.87 in 10.0 mi SSW 6.9 mph - N/A   Overcast
3:53 PM 61.0 °F 50.0 °F 67% 29.89 in 10.0 mi WSW 6.9 mph - N/A   Mostly Cloudy
4:53 PM 55.0 °F 51.1 °F 86% 29.96 in 10.0 mi WNW 8.1 mph - 0.00 in Rain Light Rain
5:53 PM 53.1 °F 50.0 °F 89% 30.01 in 10.0 mi Calm Calm - 0.00 in Rain Light Rain
6:53 PM 51.1 °F 51.1 °F 100% 30.01 in 10.0 mi Calm Calm - 0.00 in Rain Light Rain
7:53 PM 50.0 °F 50.0 °F 100% 30.00 in 10.0 mi SSW 4.6 mph - 0.00 in   Overcast
8:53 PM 50.0 °F 50.0 °F 100% 29.96 in 10.0 mi South 8.1 mph - 0.00 in   Mostly Cloudy
9:53 PM 51.1 °F 50.0 °F 96% 29.95 in 10.0 mi SSW 3.5 mph - 0.01 in Rain Light Rain
10:53 PM 48.9 °F 48.9 °F 100% 29.98 in 10.0 mi Calm Calm - 0.01 in Rain Light Rain
11:53 PM 48.0 °F 48.0 °F 100% 29.97 in 7.0 mi Calm Calm - 0.00 in Rain Light Rain